When you browse on this site, cookies collect data to enhance your experience and personalize the content and advertising you see.
Visit our Privacy Policy to learn more. By continuing to use the site, you agree to this use of cookies and data.
  • In Romania
  • List of Countries
  • For 7 days
  • Water Temperature
  • Satellite Maps
  • Weather Map
  • Weather Widgets
  • user-avatar
    Login

    Hourly Weather Leicester

    Today, 19 April, Friday

    Time Temperature Precipitation Wind Pressure Humidity
    00:00 +8°C° 0 mm 3 mps 765 mmHg 89%
    01:00 +8°C° 0 mm 3 mps 765 mmHg 90%
    02:00 +8°C° 0 mm 3 mps 765 mmHg 92%
    03:00 +8°C° 0 mm 3 mps 765 mmHg 93%
    04:00 +8°C° 0 mm 3 mps 765 mmHg 93%
    05:00 +8°C° 0 mm 3 mps 765 mmHg 92%
    06:00 +8°C° 0 mm 3 mps 766 mmHg 92%
    07:00 +10°C° 0 mm 3 mps 766 mmHg 87%
    08:00 +12°C° 0 mm 3 mps 766 mmHg 83%
    09:00 +14°C° 0 mm 3 mps 766 mmHg 79%
    10:00 +16°C° 0 mm 3 mps 766 mmHg 74%
    11:00 +18°C° 0 mm 3 mps 766 mmHg 70%
    12:00 +20°C° 0 mm 4 mps 766 mmHg 65%
    13:00 +20°C° 0 mm 3 mps 766 mmHg 64%
    14:00 +20°C° 0 mm 3 mps 766 mmHg 63%
    15:00 +21°C° 0 mm 3 mps 766 mmHg 62%
    16:00 +20°C° 0 mm 3 mps 766 mmHg 68%
    17:00 +18°C° 0 mm 3 mps 766 mmHg 73%
    18:00 +17°C° 0 mm 3 mps 767 mmHg 79%
    19:00 +14°C° 0 mm 3 mps 767 mmHg 83%
    20:00 +12°C° 0 mm 3 mps 767 mmHg 86%
    21:00 +10°C° 0 mm 2 mps 768 mmHg 90%
    22:00 +9°C° 0 mm 2 mps 768 mmHg 90%
    23:00 +9°C° 0 mm 2 mps 768 mmHg 89%

    Tomorrow, 20 April, Saturday

    Time Temperature Precipitation Wind Pressure Humidity
    00:00 +8°C° 0 mm 2 mps 768 mmHg 89%
    01:00 +8°C° 0 mm 2 mps 768 mmHg 89%
    02:00 +7°C° 0 mm 2 mps 768 mmHg 89%
    03:00 +7°C° 0 mm 2 mps 767 mmHg 90%
    04:00 +7°C° 0 mm 2 mps 767 mmHg 90%
    05:00 +7°C° 0 mm 2 mps 768 mmHg 90%
    06:00 +7°C° 0 mm 2 mps 768 mmHg 90%
    07:00 +10°C° 0 mm 2 mps 768 mmHg 85%
    08:00 +13°C° 0 mm 2 mps 768 mmHg 80%
    09:00 +16°C° 0 mm 2 mps 767 mmHg 75%
    10:00 +17°C° 0 mm 2 mps 767 mmHg 72%
    11:00 +18°C° 0 mm 2 mps 767 mmHg 68%
    12:00 +20°C° 0 mm 2 mps 767 mmHg 64%
    13:00 +20°C° 0 mm 2 mps 767 mmHg 62%
    14:00 +20°C° 0 mm 2 mps 766 mmHg 60%
    15:00 +21°C° 0 mm 2 mps 766 mmHg 58%
    16:00 +20°C° 0 mm 2 mps 765 mmHg 64%
    17:00 +19°C° 0 mm 2 mps 765 mmHg 70%
    18:00 +18°C° 0 mm 2 mps 765 mmHg 76%
    19:00 +16°C° 0 mm 2 mps 765 mmHg 79%
    20:00 +14°C° 0 mm 2 mps 765 mmHg 83%
    21:00 +12°C° 0 mm 2 mps 765 mmHg 87%
    22:00 +10°C° 0 mm 2 mps 765 mmHg 88%
    23:00 +9°C° 0 mm 2 mps 765 mmHg 88%

    Day after tomorrow, 21 April, Sunday

    Time Temperature Precipitation Wind Pressure Humidity
    00:00 +9°C° 0 mm 2 mps 764 mmHg 89%
    01:00 +9°C° 0 mm 1 mps 764 mmHg 88%
    02:00 +9°C° 0 mm 1 mps 763 mmHg 88%
    03:00 +8°C° 0 mm 1 mps 763 mmHg 88%
    04:00 +8°C° 0 mm 1 mps 762 mmHg 87%
    05:00 +9°C° 0 mm 1 mps 762 mmHg 86%
    06:00 +9°C° 0 mm 1 mps 762 mmHg 85%
    07:00 +11°C° 0 mm 1 mps 761 mmHg 79%
    08:00 +13°C° 0 mm 1 mps 761 mmHg 74%
    09:00 +15°C° 0 mm 1 mps 761 mmHg 68%
    10:00 +17°C° 0 mm 2 mps 760 mmHg 65%
    11:00 +18°C° 0 mm 2 mps 759 mmHg 62%
    12:00 +19°C° 0 mm 2 mps 759 mmHg 59%
    13:00 +20°C° 0 mm 3 mps 758 mmHg 59%
    14:00 +20°C° 0 mm 3 mps 757 mmHg 59%
    15:00 +20°C° 0 mm 3 mps 757 mmHg 59%
    16:00 +19°C° 0 mm 3 mps 756 mmHg 64%
    17:00 +19°C° 0 mm 2 mps 756 mmHg 68%
    18:00 +18°C° 0 mm 2 mps 755 mmHg 73%
    19:00 +16°C° 0 mm 2 mps 755 mmHg 77%
    20:00 +14°C° 0 mm 2 mps 755 mmHg 81%
    21:00 +12°C° 0 mm 3 mps 755 mmHg 85%
    22:00 +11°C° 0 mm 3 mps 755 mmHg 85%
    23:00 +10°C° 0 mm 3 mps 754 mmHg 86%

    22 April, Monday

    Time Temperature Precipitation Wind Pressure Humidity
    00:00 +10°C° 0 mm 3 mps 754 mmHg 87%
    01:00 +9°C° 0 mm 3 mps 753 mmHg 89%
    02:00 +9°C° 0 mm 3 mps 753 mmHg 91%
    03:00 +8°C° 0 mm 3 mps 752 mmHg 93%
    04:00 +9°C° 0 mm 2 mps 752 mmHg 93%
    05:00 +9°C° 0 mm 2 mps 752 mmHg 92%
    06:00 +9°C° 0 mm 2 mps 751 mmHg 91%
    07:00 +12°C° 0 mm 2 mps 751 mmHg 87%
    08:00 +13°C° 0 mm 3 mps 751 mmHg 82%
    09:00 +16°C° 0 mm 3 mps 751 mmHg 77%
    10:00 +17°C° 0 mm 4 mps 750 mmHg 71%
    11:00 +19°C° 0 mm 4 mps 750 mmHg 66%
    12:00 +20°C° 0 mm 5 mps 750 mmHg 60%
    13:00 +20°C° 0 mm 5 mps 749 mmHg 60%
    14:00 +20°C° 0 mm 5 mps 749 mmHg 60%
    15:00 +20°C° 0 mm 4 mps 748 mmHg 59%
    16:00 +19°C° 0 mm 4 mps 748 mmHg 64%
    17:00 +19°C° 0 mm 4 mps 748 mmHg 69%
    18:00 +18°C° 0 mm 3 mps 747 mmHg 74%
    19:00 +16°C° 0 mm 3 mps 747 mmHg 78%
    20:00 +13°C° 0 mm 3 mps 747 mmHg 82%
    21:00 +11°C° 0 mm 3 mps 748 mmHg 85%
    22:00 +10°C° 0 mm 3 mps 747 mmHg 87%
    23:00 +9°C° 0 mm 3 mps 747 mmHg 88%

    23 April, Tuesday

    Time Temperature Precipitation Wind Pressure Humidity
    00:00 +9°C° 0 mm 2 mps 747 mmHg 90%
    01:00 +8°C° 0 mm 3 mps 746 mmHg 90%
    02:00 +8°C° 0 mm 3 mps 746 mmHg 90%
    03:00 +8°C° 0 mm 3 mps 746 mmHg 90%
    04:00 +9°C° 0 mm 3 mps 745 mmHg 90%
    05:00 +9°C° 0 mm 3 mps 745 mmHg 90%
    06:00 +8°C° 0 mm 4 mps 745 mmHg 89%
    07:00 +11°C° 0 mm 4 mps 745 mmHg 86%
    08:00 +12°C° 0 mm 4 mps 745 mmHg 84%
    09:00 +13°C° 0 mm 5 mps 745 mmHg 81%
    10:00 +15°C° 0.2 mm 5 mps 745 mmHg 78%
    11:00 +16°C° 0.2 mm 6 mps 745 mmHg 74%
    12:00 +19°C° 0.2 mm 6 mps 744 mmHg 71%
    13:00 +19°C° 0.5 mm 6 mps 744 mmHg 72%
    14:00 +19°C° 0.5 mm 6 mps 744 mmHg 72%
    15:00 +19°C° 0.5 mm 6 mps 744 mmHg 72%
    16:00 +17°C° 0.6 mm 5 mps 744 mmHg 76%
    17:00 +16°C° 0.6 mm 5 mps 744 mmHg 80%
    18:00 +17°C° 0.6 mm 4 mps 744 mmHg 83%
    19:00 +14°C° 0.1 mm 4 mps 744 mmHg 86%
    20:00 +13°C° 0.1 mm 4 mps 745 mmHg 89%
    21:00 +11°C° 0.1 mm 4 mps 745 mmHg 92%
    22:00 +10°C° 0 mm 4 mps 745 mmHg 92%
    23:00 +10°C° 0 mm 3 mps 745 mmHg 93%

    24 April, Wednesday

    Time Temperature Precipitation Wind Pressure Humidity
    00:00 +9°C° 0 mm 3 mps 745 mmHg 93%
    01:00 +9°C° 0 mm 3 mps 745 mmHg 92%
    02:00 +8°C° 0 mm 3 mps 745 mmHg 92%
    03:00 +8°C° 0 mm 3 mps 745 mmHg 91%
    04:00 +9°C° 0.2 mm 3 mps 745 mmHg 92%
    05:00 +9°C° 0.2 mm 3 mps 745 mmHg 92%
    06:00 +9°C° 0.2 mm 3 mps 745 mmHg 93%
    07:00 +12°C° 0.2 mm 3 mps 746 mmHg 90%
    08:00 +14°C° 0.2 mm 3 mps 746 mmHg 87%
    09:00 +17°C° 0.2 mm 3 mps 746 mmHg 85%
    10:00 +17°C° 0.3 mm 3 mps 746 mmHg 82%
    11:00 +18°C° 0.3 mm 4 mps 746 mmHg 80%
    12:00 +18°C° 0.3 mm 4 mps 747 mmHg 78%
    13:00 +19°C° 0.3 mm 4 mps 747 mmHg 77%
    14:00 +19°C° 0.3 mm 4 mps 747 mmHg 76%
    15:00 +19°C° 0.3 mm 5 mps 746 mmHg 76%
    16:00 +18°C° 0.1 mm 4 mps 747 mmHg 80%
    17:00 +17°C° 0.1 mm 4 mps 747 mmHg 83%
    18:00 +15°C° 0.1 mm 4 mps 747 mmHg 87%
    19:00 +14°C° 0.2 mm 3 mps 747 mmHg 89%
    20:00 +13°C° 0.2 mm 3 mps 748 mmHg 91%
    21:00 +12°C° 0.2 mm 3 mps 748 mmHg 93%
    22:00 +12°C° 0.2 mm 3 mps 748 mmHg 94%
    23:00 +13°C° 0.2 mm 2 mps 748 mmHg 95%
    Show more